Location: Poughquag
(41.6090°N, 73.6820°W)
Time: 16:49:30
(UTC-05:00)

S-56A Canister/Altair - Pass Details

Date: 02 December 2023
Orbit: 640 x 2488 km, 38.9° (Epoch: 26 February)

Event Time Altitude Azimuth Distance (km) Brightness Sun altitude
Rises 18:08:37 0° 274° (W) 3,394 12.2 -18.8°
Reaches altitude 10° 18:11:15 10° 260° (W) 2,650 11.5 -19.3°
Maximum altitude 18:16:19 25° 207° (SSW) 2,152 10.2 -20.2°
Drops below altitude 10° 18:23:03 10° 157° (SSE) 3,627 10.8 -21.5°
Sets 18:27:25 0° 146° (SE) 4,962 11.4 -22.3°
